Location: Unspecified
(48.5670°N, 0.0000°E)
Time: 22:31:19
(UTC+00:00)

A-11 Canister half - Visible Passes

Search period start: 18 June 2021 00:00
Search period end: 28 June 2021 00:00
Orbit: 1513 x 1686 km, 47.2° (Epoch: 18 June)

Date Brightness Start Highest point End Pass type
(mag) Time Alt. Az. Time Alt. Az. Time Alt. Az.
20 Jun 10.3 03:04:36 10° S 03:12:47 30° SE 03:20:47 10° E visible
21 Jun 10.3 02:41:56 10° S 02:49:56 28° SE 02:57:46 10° E visible
22 Jun 10.3 02:19:18 10° S 02:27:06 26° SE 02:34:44 10° E visible
23 Jun 10.3 01:57:08 11° S 02:04:16 25° SE 02:11:42 10° E visible
24 Jun 10.3 01:35:16 13° S 01:41:25 23° SE 01:48:39 10° E visible
25 Jun 10.4 01:13:20 14° SSE 01:18:36 22° SE 01:25:33 10° E visible
25 Jun 9.5 03:12:18 10° SW 03:22:02 55° SSE 03:31:29 10° ENE visible
26 Jun 10.4 00:51:22 15° SSE 00:55:46 20° SE 01:02:27 10° E visible
26 Jun 9.5 02:49:32 10° SW 02:59:08 53° SSE 03:08:33 10° ENE visible
27 Jun 10.4 00:29:21 16° SSE 00:32:57 19° SE 00:39:17 10° E visible
27 Jun 9.5 02:27:30 13° SW 02:36:14 51° SSE 02:45:38 10° ENE visible
